Regional Weather Roundup
Issued by NWS Wakefield, VA

Home | Current Version | Previous Version | Graphics & Text | Print | Product List | Glossary On
Versions: 1 2 3 4 5 6 7 8 9 10 11 12 13 14 15 16 17 18 19 20 21 22 23 24 25 26 27 28 29 30 31 32 33 34 35 36 37 38 39 40 41 42 43 44 45 46 47 48 49 50
000
ASUS41 KAKQ 140615
RWRAKQ

REGIONAL WEATHER ROUNDUP
NATIONAL WEATHER SERVICE WAKEFIELD VA
100 AM EST SUN FEB 14 2016

Note: "fair" indicates few or no clouds below 12,000 feet with no
significant weather and/or obstructions to visibility. * = Denotes
station may not report precipitation (e.g., rain,snow,etc.),
thunder or fog.

VAZ042-051-052>054-056-140700-
NORTHERN VIRGINIA

CITY           SKY/WX    TMP DP  RH WIND       PRES   REMARKS
WASH NATIONAL  FAIR      15  -4  42 NW14      30.47S WCI   0
DULLES         FAIR      12  -4  48 NW9       30.45R
FORT BELVOIR   FAIR      14  -6  41 W7        30.47S
QUANTICO       FAIR      16  -6  37 N13       30.50R WCI   2
FREDERICKSBRG* FAIR      12   2  64 CALM      30.48R
STAFFORD*      FAIR      13  -5  45 NW12      30.51S WCI  -1
WARRENTON      FAIR      15   0  52 NW9       30.44S
CULPEPER*      FAIR      12  -5  45 CALM      30.47S
MANASSAS*      FAIR      14  -2  48 NW13G18   30.46S WCI   0
LEESBURG*      FAIR      14   1  57 MISG      30.44S
WINCHESTER     FAIR      12   0  57 NW8       30.41S
FRONT ROYAL*   MOCLDY    12  -4  48 NW5       30.40F
LURAY*         FAIR      12  -6  44 CALM      30.41R
$$

VAZ048-049-060>072-079>083-140700-
CENTRAL AND SOUTH CENTRAL VIRGINIA

CITY           SKY/WX    TMP DP  RH WIND       PRES   REMARKS
RICHMOND       FAIR      14  -3  47 N7        30.47R
CHESTERFIELD*  FAIR      16 -11  29 N6        30.47S
PETERSBURG*    FAIR      18  -8  31 N3        30.48R
HANOVER        FAIR      13  -4  46 CALM      30.48S
TAPPAHANNOCK*  FAIR      16  -5  39 W3        30.48S
QUINTON*       FAIR      15  -4  42 N5        30.47S
CHARLOTTSVILLE FAIR      12  -7  42 CALM      30.43S
GORDONSVILLE*  FAIR      13  -5  44 E3        30.44S
ORANGE*        FAIR      14  -2  48 W5        30.46S
LOUISA*        FAIR      12  -2  52 CALM      30.43S
BUMPASS*       FAIR      14  -4  43 NW5       30.46R
FARMVILLE*     FAIR      14  -1  50 CALM      30.45R
CREWE*         FAIR      12   0  57 CALM      30.45R
FORT PICKETT*  FAIR      14  -4  44 NE3       30.45S
CHASE CITY*    FAIR      16  -4  40 CALM      30.45R
CLARKSVILLE*   FAIR      19  -4  35 NW5       30.44S
SOUTH HILL*    FAIR      15  -1  49 NW6       30.50S
LAWRENCEVILLE* FAIR      16  -1  48 CALM      30.45S
EMPORIA*       FAIR      16   0  48 NW7       30.48S
$$

VAZ088>098-140700-
SOUTHEAST VIRGINIA

CITY           SKY/WX    TMP DP  RH WIND       PRES   REMARKS
NORFOLK        FAIR      20  -2  38 NW10G21   30.45S WCI   9
VIRGINIA BEACH FAIR      23   0  36 N22       30.44R WCI   8
NORFOLK NAVAL  FAIR      20  -2  38 NW23      30.47R WCI   3
WEST POINT*    FAIR      15  -6  38 N3        30.50R
SALUDA*        FAIR      17  -3  41 NW12G20   30.47R WCI   4
NEWPORT NEWS   FAIR      17  -4  39 N14G22    30.46R WCI   3
LANGLEY AFB    FAIR      18  -4  37 N21G30    30.44S WCI   1
FORT EUSTIS    FAIR      18  -3  40 N12G18    30.45R WCI   5
WILLIAMSBURG*  FAIR      19   0  42 N9        30.48R
HR EXEC AP*    FAIR      19  -2  38 N9        30.48R
FRANKLIN*      FAIR      17  -3  41 N5        30.47S
US460-WAKEFLD  FAIR      17  -4  39 N5        30.47S
$$

VAZ020-022-025-037-045-140700-
WEST CENTRAL AND SOUTHWEST VIRGINIA

CITY           SKY/WX    TMP DP  RH WIND       PRES   REMARKS
STAUNTON*      FAIR      10  -1  62 CALM      30.40S
WAYNESBORO*    FAIR       8  -9  45 W5        30.36S
HOT SPRINGS VA FAIR       0  -8  70 NW13G18   30.09S WCI -18
LYNCHBURG      FAIR       9  -3  58 CALM      30.43R
DANVILLE       FAIR      16   0  49 N5        30.45S
SOUTH BOSTON*  FAIR      17  -6  36 NW8       30.45S
MARTINSVILLE   FAIR       9   0  68 CALM      30.45R
ROANOKE        FAIR      13  -5  44 NW9       30.42S
BLACKSBURG     FAIR      10  -1  61 W5        30.34S
DUBLIN*        FAIR      11  -2  55 NW3       30.33R
MARION*        FAIR      11  -3  55 SW6       30.30F
HILLSVILLE*    FAIR       9  -2  60 CALM      30.24S
RICHLANDS*     FAIR       8  -4  57 CALM      30.28F
WISE*          FAIR      10  -4  52 N5        30.28F
ABINGDON*      FAIR      12  -1  56 CALM      30.32F
$$

MDZ021>025-VAZ099-100-140700-
SOUTHERN MARYLAND AND THE DELMARVA PENINSULA

CITY           SKY/WX    TMP DP  RH WIND       PRES   REMARKS
PATUXENT RIVER CLEAR     15  -6  39 W15       30.45S WCI   0
BAY BRIDGE APT   N/A     16  -4  41 NW14G22   30.44S WCI   1
LEONARDTOWN    CLEAR     14  -8  37 NW8       30.47S
DOVER          CLEAR     14  -6  40 W18G25    30.38F WCI  -3
GEORGETOWN     CLEAR     14  -6  40 VRB6      30.42R
EASTON         PTCLDY    16  -2  45 N22G29    30.47R WCI  -2
CAMBRIDGE      MOCLDY    16  -2  45 NW13G24   30.43S WCI   2
SALISBURY      CLEAR     15  -3  44 NW15      30.43R WCI   0
OCEAN CITY     PTCLDY    15  -3  44 NW12G23   30.42R WCI   2
WALLOPS ISLAND FAIR      16  -4  41 NW14G28   30.43S WCI   2
ACCOMACK*      CLOUDY    18  -2  41 NW14G22   30.43S WCI   4
$$

NCZ012>017-030>032-140700-
NORTH CENTRAL AND EASTERN NORTH CAROLINA

CITY           SKY/WX    TMP DP  RH WIND       PRES   REMARKS
ROANOKE RAPIDS FAIR      21   0  39 N7        30.45S
RALEIGH        CLEAR     20  -1  40 VRB3      30.44R
ELIZABETH CITY CLEAR     20   3  48 N15G41    30.45R WCI   6
AHOSKIE*       PTCLDY    19  -1  42 N6        30.46S
EDENTON*       CLEAR     23  -1  35 N7        30.45S
CURRITUCK*     CLEAR     21   1  42 NW10      30.46R WCI   9
KILL DEVIL HLS CLEAR     22   2  41 NW10G18   30.42R WCI  11
MANTEO         CLEAR     23   6  48 N13G22    30.43R WCI  11
CAPE HATTERAS  CLEAR     28   9  44 N6        30.39S
TARBORO*       FAIR      22   1  39 N8        30.46S
GOLDSBORO      CLEAR     23  -2  33 N7        30.43R
WASHINGTON     CLEAR     22   3  43 NW5       30.44R
GREENVILLE     CLEAR     23   1  39 N5        30.44S
NEW BERN       CLEAR     25   2  37 N12       30.44R WCI  14
WILMINGTON     CLEAR     27   5  39 NE6       30.42R
$$

VAZ048-140700-
ELSEWHERE

CITY           SKY/WX    TMP DP  RH WIND       PRES   REMARKS
HARRISBURG PA  PTCLDY    11  -4  51 NW17      30.38S WCI  -6
BALTIMORE      PTCLDY    12  -4  48 NW10      30.43S WCI  -1
ANNAPOLIS      CLEAR     15   0  51 NW9       30.44S
ANDREWS AFB    FAIR      13  -5  44 NW17G23   30.43R WCI  -3
PHILADELPHIA   PTCLDY    13  -8  39 NW13G25   30.39R WCI  -2
HENDERSON NC   CLEAR     18  -7  32 N6        30.44R
GREENSBORO     CLEAR     17  -1  45 NE3       30.39F
ROCKY MOUNT    CLEAR     22  -2  35 N10       30.45R WCI  11
$$

VAZ100-140700-
MARINE

STATION/POSITION TIME  TEMP    WIND        PRES    WAVE   SWELL
                       AIR SEA DIR/SP/G            HT/PER HT/PER
                 (UTC) (F)     (DEG/KT/KT) (MB)    (FT/S) (FT/S)
BRANDYWINE LGT   0500   16     310/ 24/ 31 1028.5R
CAPE MAY NJ      0500   17 32  310/ 15/ 30 1028.3R
LEWES DE         0500   17 34  310/ 25/ 31 1029.3R
15NM E FENWICK I 0550   18 43              1029.0R   6/ 6
OCEAN-CITY-INLET 0500   17 39  340/ 14/ 18 1028.9R
WACHAPREAGUE VA  0500   18 33  310/  3/ 13 1030.6R
GOOSES REEF MD   0600   17 36  310/ 17/ 21 1032.0R   2/ 4
COVE POINT MD    0500   15     340/ 23/ 30 1031.6R
SOLOMONS ISLAND  0500   17 38  290/  9/ 19   N/A
BISHOPS HEAD MD  0500   17 30  320/ 15/ 22 1030.2R
PINEY POINT MD   0500          340/ 24/ 28   N/A
POTOMAC MD       0600   18 37  320/ 19/ 27 1030.8R   3/ 3
CAMBRIDGE MD     0500   17 34  300/ 16/ 26 1030.0R
LEWISETTA VA     0500   18 34  330/ 18/ 26 1031.5R
RAPPAHANNOCK LGT 0500          320/ 24/ 31 1030.8R
STINGRAY PT      0600   19 38  330/ 19/ 23 1031.8R   3/ 3
YORK RVR RNG VA  0500   21     360/ 27/ 31 1030.0R
YORKTOWN VA      0500   19 39  340/ 16/ 20 1031.3R
JAMESTOWN VA     0600   17 39  360/ 10/ 14   N/A     0
DOMINION TERM VA 0500   20     340/ 12/ 17 1031.2R
KIPTOPEKE VA     0500      36  340/ 28/ 35   N/A
CHES BAY BRIDGE  0500   22 39  310/ 23/ 30 1030.4R
CAPE HENRY VA    0500   22     330/ 28/ 35   N/A
CHESAPEAKE LGHT  0500   21     340/ 30/ 35 1030.3R
WILLOUBY STN VA  0500   20     340/ 18/ 23 1031.7R
CAPE HENRY BUOY  0528      42                N/A     6/ 6
1ST LANDING BUOY 0600      40                N/A     4/ 4
CAPE CHARLES BUO 0526      41                N/A     5/ 4   2/10
OFFSHORE WE BUOY 0521      45                N/A     8/ 6   2/11
64NM E OF VA BCH 0550   26 50  330/ 25/ 33 1028.6R   9/ 8   2/11
DUCK PIER NC     0500   24     340/ 20/ 23 1029.2R
44100 DUCK FRF   0524      45                N/A     7/ 7
44056 DUCK FRF   0511      42                N/A     5/ 6
OREGON INLET NC  0500   25 38  320/ 13/ 17 1029.6R
HATTERAS NC      0500   30 41  340/ 20/ 26 1028.6F
DIAMOND SHLS NC  0550   33 72  350/ 19/ 29 1028.3R   6/ 5
$$



USA.gov is the U.S. government's official web portal to all federal, state and local government web resources and services.